Theta_e
309 311 311 312 311 309 309 308 307 306 307 307 306 307 309 312 306 305 317 317 312 313 313 314 317 320 319 316 317 322 325 324 332 339 331 329 334 341 340 358 363 360 365 364 363 363 362 359 358 358 358 360 363 365 365 364 361 362 365 365 365 365 366 366 365 365 366 366 365 364 364 365 363 362 362 362 363 364 365 365 364 363 361 359 365 367 368
308 309 310 311 310 310 310 308 308 308 307 307 307 308 309 310 314 314 315 320 312 313 314 315 316 319 318 319 323 324 324 324 335 328 332 327 330 333 340 347 349 360 361 367 365 366 365 360 361 356 359 362 362 362 363 363 364 363 365 365 365 364 365 367 368 368 367 367 366 366 365 365 364 363 363 364 363 363 362 364 365 366 365 363 360 366 366
305 308 310 310 310 309 307 309 309 308 308 308 308 308 309 310 310 310 310 315 314 316 321 318 319 324 320 323 321 320 326 322 321 322 323 325 326 326 332 349 346 356 360 363 366 366 366 364 362 359 360 362 363 358 360 360 363 364 365 366 365 364 365 369 369 369 368 368 368 366 366 366 367 365 364 364 364 363 362 362 364 368 367 365 360 361 366
302 306 307 309 309 309 308 307 309 308 308 306 308 307 309 309 309 311 310 311 310 317 320 318 321 321 322 320 323 323 322 320 324 321 321 324 330 328 335 342 343 355 354 359 361 362 360 360 364 362 364 362 362 357 361 360 360 360 362 365 365 366 367 370 370 370 369 369 369 368 367 366 367 367 366 364 364 364 363 362 363 366 367 366 365 361 364
300 305 307 307 308 306 303 303 307 310 310 310 311 311 311 311 312 308 307 310 316 321 322 317 317 317 319 320 318 321 323 333 325 324 323 323 326 334 341 347 354 347 347 351 360 357 356 357 356 358 364 359 359 361 362 363 363 360 360 362 367 367 367 370 371 371 371 370 369 369 368 367 367 368 367 365 364 364 363 364 364 364 367 367 366 364 363
299 304 305 307 303 296 298 310 312 312 310 310 309 308 310 312 312 311 314 316 321 320 318 317 318 318 321 323 331 326 331 330 332 322 323 323 323 325 329 338 342 341 353 356 357 359 365 361 353 359 361 358 361 363 366 367 364 364 363 362 369 367 368 370 371 372 372 372 370 369 370 369 368 368 368 367 366 366 366 366 365 364 365 367 367 366 365
298 303 303 299 294 296 310 313 314 314 313 312 311 312 311 312 313 313 314 316 318 320 320 320 323 328 323 322 323 322 323 327 325 329 324 327 330 334 342 337 335 356 351 360 361 360 352 352 361 361 361 360 364 365 366 368 366 365 365 363 366 369 367 369 372 372 373 374 372 371 371 371 370 368 369 369 369 367 366 365 365 365 365 366 367 367 367
301 300 299 292 294 307 311 312 313 315 313 313 311 309 312 314 314 315 314 317 317 320 320 320 323 325 321 322 325 326 323 322 323 321 322 324 324 327 334 345 363 365 358 361 352 363 362 350 346 354 359 356 354 360 365 366 367 365 366 365 364 370 368 368 370 372 373 374 374 373 372 371 370 369 369 370 369 368 365 364 366 368 368 367 366 368 369
295 297 298 297 306 305 307 307 311 310 309 310 308 305 310 315 315 315 315 316 317 317 318 319 320 322 320 320 324 322 321 321 320 323 330 324 325 329 340 344 356 362 363 357 356 361 357 357 351 356 353 356 357 358 362 363 366 366 365 364 363 367 368 368 369 372 373 374 374 373 373 371 369 369 369 371 371 371 366 364 364 365 365 365 366 367 367
299 296 295 297 297 295 301 309 313 315 315 315 315 311 308 314 315 316 316 315 316 316 316 317 319 319 317 314 316 322 322 322 329 345 348 346 348 348 348 355 357 365 367 366 364 363 362 362 366 372 364 366 367 364 362 363 364 365 364 363 364 366 369 369 369 371 374 375 374 373 373 372 370 370 370 371 371 371 367 364 362 363 365 365 366 367 366
296 296 292 294 294 298 307 308 312 314 316 315 315 309 304 314 315 316 315 314 316 317 320 319 319 315 311 312 326 331 335 336 346 346 346 347 346 350 354 353 351 352 360 360 356 358 359 355 367 373 373 371 367 369 366 363 362 361 362 363 364 364 368 370 370 371 374 375 375 373 373 373 373 371 370 371 372 373 369 367 364 366 366 366 367 368 366
294 295 294 293 300 299 307 310 312 315 317 316 313 299 301 321 323 323 319 315 320 330 329 327 323 319 313 318 328 333 335 336 347 347 347 348 350 351 352 350 349 353 358 363 364 365 363 370 370 371 368 364 365 368 368 362 359 358 361 364 367 367 368 370 370 371 373 375 375 374 373 374 373 373 373 371 371 371 370 368 366 365 364 365 366 367 367
295 294 294 298 301 309 310 312 314 315 317 313 302 297 312 320 324 325 325 326 327 329 328 327 323 327 328 329 333 335 336 338 342 346 349 348 348 347 347 351 358 356 360 363 359 361 362 366 368 369 366 362 362 366 371 364 360 360 365 369 370 369 369 368 370 371 372 374 373 373 374 374 373 372 371 370 369 370 367 367 367 367 365 364 363 366 366
293 295 293 295 300 308 310 315 314 317 310 301 300 316 321 323 323 324 326 326 327 326 327 327 325 326 328 331 334 335 335 336 340 343 343 347 348 347 349 353 357 353 359 359 360 359 364 364 361 360 366 367 366 369 370 366 368 368 372 373 373 372 371 369 370 371 370 373 374 371 373 375 374 372 372 372 370 370 367 368 369 368 368 366 364 363 365
295 295 294 292 288 303 309 312 313 315 308 307 315 319 320 323 324 324 325 327 327 327 327 326 326 327 328 331 333 334 337 337 339 341 342 347 346 348 350 352 353 351 355 356 358 358 359 364 364 360 359 364 363 367 368 369 372 373 375 374 374 373 373 370 370 371 372 373 371 369 371 374 374 372 373 371 371 371 370 369 370 368 368 368 366 365 367
290 291 290 292 301 307 312 312 305 309 311 316 319 317 318 321 323 323 324 326 327 327 327 325 327 326 329 329 331 332 336 337 338 340 343 348 347 346 348 350 349 350 356 356 357 357 356 363 367 364 365 363 363 364 363 368 377 374 378 378 376 372 371 371 371 371 372 371 373 372 373 374 373 373 372 371 372 372 371 370 369 368 368 368 367 364 363
294 293 297 307 307 310 311 311 310 312 314 316 317 318 319 321 322 325 324 325 327 327 328 328 328 328 328 330 331 332 333 337 339 341 344 344 344 345 346 347 349 349 351 352 354 355 357 360 363 368 367 363 361 365 368 374 369 373 373 374 374 372 369 371 372 371 372 372 373 373 374 374 372 371 372 371 370 373 372 369 368 367 369 368 367 366 366
304 304 304 306 309 311 309 311 312 311 313 314 316 318 319 321 321 322 323 324 325 327 329 328 329 329 329 329 331 332 334 336 338 342 343 344 345 346 347 349 348 348 350 352 352 353 355 357 360 365 364 365 366 362 366 369 370 372 372 371 370 371 370 370 370 369 369 367 373 373 373 372 372 372 370 369 368 371 370 367 367 367 367 364 363 364 364
296 292 305 306 308 310 310 309 311 313 313 313 316 318 318 318 318 320 323 323 324 326 329 328 327 328 329 330 332 334 335 336 338 339 341 343 344 344 346 349 349 350 351 348 350 351 351 353 355 356 357 360 362 361 361 363 366 368 368 372 371 372 372 370 370 369 367 362 363 366 370 365 368 369 368 367 367 366 366 363 363 363 362 361 360 359 361
296 297 303 305 307 308 309 309 309 310 312 314 317 317 317 317 319 320 320 322 323 325 325 328 328 328 330 332 331 332 333 335 337 339 339 342 343 346 347 348 348 349 349 349 348 348 349 351 354 355 356 357 360 362 362 365 367 368 369 369 368 369 369 369 367 368 368 367 365 361 363 363 360 362 363 362 363 367 363 362 361 360 360 358 359 358 359
300 303 305 306 307 307 308 309 310 311 312 315 315 315 315 317 317 318 318 320 322 323 324 327 329 328 329 331 332 332 334 336 338 339 341 342 344 346 346 347 348 348 349 348 347 346 347 348 351 351 352 353 356 360 362 369 370 366 369 367 370 368 366 368 369 372 369 370 364 362 356 344 338 336 345 363 353 345 341 347 354 361 363 358 362 364 352
295 297 301 305 298 299 304 308 310 311 313 313 314 314 314 315 315 317 317 317 320 322 324 325 327 328 329 330 332 332 334 337 339 341 343 343 342 344 346 346 347 347 347 348 347 346 346 349 350 351 352 353 356 356 361 365 367 366 365 365 365 365 368 369 370 371 369 368 368 361 350 343 338 335 323 312 336 341 332 320 313 315 322 341 346 350 340
294 301 305 308 306 305 306 308 310 311 312 312 311 311 312 314 316 316 316 315 316 319 323 325 327 329 329 330 332 332 334 336 339 340 342 342 343 343 344 344 345 345 345 345 345 345 347 348 348 349 350 352 354 356 358 359 361 362 362 361 359 359 359 359 359 364 363 363 367 364 355 350 342 336 335 330 306 307 317 318 310 304 302 305 311 319 340
302 304 305 306 305 303 306 309 310 310 312 311 311 312 313 314 314 315 316 316 316 317 321 324 327 329 330 331 331 331 332 337 339 340 343 344 344 344 345 345 344 344 344 345 345 345 346 346 346 349 349 349 352 351 355 357 359 358 357 357 356 355 355 356 359 360 360 361 359 358 359 351 345 339 337 337 334 314 305 308 307 303 303 304 305 307 312
300 306 306 307 307 307 308 309 310 311 312 313 311 312 312 313 313 315 316 317 318 319 320 323 327 330 330 331 331 332 332 334 338 340 342 343 346 345 344 344 344 344 346 346 347 348 347 346 346 347 348 349 352 352 355 356 356 355 355 356 354 354 354 354 351 351 350 354 353 355 354 355 346 341 335 333 334 336 333 309 302 301 301 301 301 303 303
306 306 307 307 308 307 309 309 308 309 310 311 311 312 313 315 314 317 318 319 318 319 320 325 327 329 332 332 332 332 333 333 337 339 339 339 340 342 342 343 344 347 346 347 346 347 346 346 348 347 347 346 349 352 350 354 354 354 353 352 352 352 352 352 353 352 351 351 350 351 352 353 349 348 344 340 337 336 336 336 336 322 306 300 299 302 305
306 307 307 305 304 305 307 305 305 310 310 311 311 312 313 314 317 317 317 318 317 317 320 327 329 330 331 332 333 333 332 334 337 338 339 339 338 340 342 343 343 344 344 344 346 347 346 347 345 345 346 347 349 349 350 351 352 351 350 350 348 348 350 349 350 350 349 350 348 350 350 346 343 340 344 346 343 343 344 342 343 347 340 337 316 308 332
305 306 306 301 301 303 305 308 309 309 309 309 310 310 311 313 313 313 314 315 317 320 324 328 329 329 329 331 333 333 333 334 334 337 337 338 340 341 343 343 343 342 341 342 343 346 346 346 343 343 345 349 351 350 347 348 350 349 348 347 344 343 345 345 346 348 349 350 350 349 348 347 346 343 343 344 340 340 337 341 342 342 339 346 345 326 303
304 306 307 307 306 307 308 309 309 309 309 311 312 312 312 311 311 312 313 313 315 320 324 327 328 329 328 329 331 331 333 334 335 336 338 340 340 340 341 341 341 340 341 341 341 345 345 344 343 342 344 349 348 348 345 345 347 344 346 345 345 344 342 343 342 341 343 346 349 351 341 344 345 348 344 340 340 340 342 341 341 341 348 345 345 346 324
305 306 306 307 308 308 307 307 306 308 308 309 309 310 311 311 312 313 314 316 321 323 324 325 326 327 329 329 330 330 331 333 335 336 336 337 339 341 341 341 341 340 340 340 342 342 343 343 343 342 343 342 341 344 339 345 344 345 345 344 344 343 344 346 344 345 345 346 342 339 350 344 351 348 342 345 344 343 342 344 342 340 342 340 335 343 340
307 308 307 307 307 307 306 306 307 308 308 309 310 309 310 311 313 313 315 319 324 324 326 326 326 327 328 329 330 332 331 332 334 335 335 337 337 338 338 339 335 334 335 336 338 339 340 340 340 341 345 346 344 343 346 342 342 341 341 341 342 334 330 332 336 345 342 342 342 342 344 343 341 341 339 337 340 340 345 341 343 340 339 341 340 340 341
306 307 307 306 305 305 305 306 306 307 308 309 309 308 309 310 311 312 315 320 323 325 325 325 325 326 328 329 330 330 331 329 330 334 333 334 334 335 335 335 335 335 335 337 337 336 336 337 337 340 344 344 343 344 344 345 347 343 341 342 341 341 336 332 338 340 341 344 341 340 338 341 337 340 340 339 339 339 340 339 339 339 339 339 340 340 340
307 305 304 305 306 305 305 306 306 307 308 308 309 310 311 312 312 315 318 322 323 324 324 325 326 327 328 327 327 328 328 327 327 330 330 330 331 332 332 332 332 333 333 333 334 334 335 335 335 338 341 341 340 341 340 343 343 343 343 341 340 340 341 335 334 342 341 339 339 340 341 341 341 340 339 339 340 339 339 336 335 336 336 338 340 343 336
310 307 307 308 307 305 305 305 307 308 309 310 310 311 311 312 314 318 320 322 324 326 326 327 325 325 325 324 324 324 325 323 322 323 326 328 328 328 327 327 328 329 330 331 331 330 331 333 337 336 336 335 336 336 338 339 343 343 343 342 340 339 340 338 338 339 338 338 338 341 341 341 340 337 338 337 337 337 336 336 335 335 335 336 340 339 319
313 313 315 313 311 310 310 308 308 309 309 309 310 311 312 315 319 321 324 324 324 324 324 323 322 323 322 321 320 319 319 318 319 320 321 323 325 325 325 324 324 324 325 326 327 327 329 331 334 333 332 331 330 331 335 339 339 339 340 340 339 337 338 337 335 335 334 334 336 335 336 336 335 336 336 336 335 336 335 335 335 334 334 334 335 336 334
310 310 310 311 312 313 312 311 311 311 311 312 312 313 316 318 319 322 321 321 322 322 322 322 321 320 319 319 318 318 317 318 318 318 318 320 322 322 322 321 320 319 320 321 323 325 326 327 332 333 330 328 327 328 332 337 336 336 338 337 335 334 333 333 333 332 332 333 332 332 331 333 332 331 331 331 331 331 330 330 330 331 332 332 333 333 334
307 306 306 307 308 309 311 313 316 312 317 318 318 317 318 318 320 321 322 321 320 320 320 319 318 316 316 316 317 318 318 317 316 315 315 316 317 317 317 317 318 317 317 316 319 322 324 325 329 330 327 326 326 326 330 334 336 335 335 333 331 331 330 329 330 330 329 331 330 329 328 328 328 327 327 327 326 326 326 327 326 327 328 329 329 330 331
306 305 305 305 306 306 307 308 310 313 314 314 314 315 317 316 317 319 317 317 317 316 316 316 316 316 316 315 315 315 314 314 314 313 313 313 313 312 312 312 313 314 313 314 318 319 321 325 326 326 325 325 325 325 327 328 331 329 329 328 328 328 328 327 326 326 326 326 326 325 324 324 323 322 322 322 323 323 323 323 323 323 325 326 326 326 327
304 306 305 304 304 304 305 306 307 307 308 307 308 310 314 315 315 315 315 315 316 316 313 312 312 311 311 311 311 312 313 314 313 311 311 311 311 310 310 310 311 312 313 315 316 317 319 321 322 321 322 322 322 322 326 329 329 326 326 326 326 325 325 325 323 323 324 324 323 322 321 320 319 319 318 318 318 318 317 317 317 318 318 319 320 320 323
303 303 304 304 303 303 303 303 304 305 306 306 306 305 308 310 310 310 311 312 314 314 311 310 309 308 307 307 307 308 309 311 313 312 311 310 310 309 308 309 310 311 313 316 314 315 318 320 318 318 320 320 320 321 324 325 325 321 320 320 320 320 320 321 320 320 320 321 320 320 318 317 316 316 315 315 315 314 314 314 314 313 313 313 313 313 314
302 303 303 303 303 304 304 303 303 305 306 307 307 307 308 307 308 307 307 308 309 311 311 310 308 307 307 306 306 307 307 308 308 309 310 309 308 308 306 305 309 310 310 311 313 314 316 316 315 314 315 317 318 321 319 322 319 318 318 318 318 317 317 316 316 316 316 315 316 315 315 314 313 313 314 313 313 312 311 311 310 310 309 309 309 309 310
302 303 303 303 304 304 304 304 304 303 304 305 307 308 309 309 308 307 308 308 308 308 308 310 311 309 308 308 307 306 304 305 306 306 307 308 307 307 306 307 311 311 313 313 312 312 312 312 313 315 313 314 316 320 320 318 316 316 316 315 315 315 314 314 313 313 313 312 311 311 311 311 311 311 311 311 311 310 309 308 307 306 306 306 307 306 306
304 303 303 303 304 305 305 304 303 303 303 304 305 306 308 308 309 309 309 309 308 307 307 307 308 308 308 308 307 305 304 304 304 304 304 305 307 308 307 308 311 310 313 313 310 309 310 311 311 311 315 314 313 316 316 311 312 313 313 314 314 313 312 311 311 311 311 310 309 308 308 308 307 307 307 307 308 308 308 306 305 304 304 304 304 304 305
307 306 305 304 304 305 305 305 305 304 303 304 305 306 306 306 308 308 308 308 308 309 307 306 306 306 307 306 305 305 306 306 305 305 304 304 305 306 309 310 310 311 312 312 310 308 308 310 310 311 314 314 314 313 310 308 308 309 310 311 312 311 311 310 309 308 307 307 307 306 306 306 305 305 305 305 305 306 306 306 305 305 304 303 303 303 304
307 306 306 305 306 306 306 306 305 305 306 306 306 305 306 306 306 307 307 306 307 307 308 307 307 306 304 305 304 304 305 306 307 307 305 304 303 303 308 310 308 308 309 310 308 307 307 309 312 314 314 312 312 312 307 307 306 307 307 308 308 309 310 310 309 308 307 307 306 305 304 303 303 303 303 304 304 304 304 304 303 304 303 303 303 302 303
307 307 307 306 304 305 306 307 308 308 307 306 305 306 307 306 305 306 306 305 305 304 305 306 306 306 306 305 305 305 305 305 305 306 307 306 305 307 309 309 308 309 309 309 307 306 307 312 311 310 311 311 311 308 306 307 307 305 305 305 306 307 307 307 308 308 308 307 306 305 303 303 302 301 301 301 301 302 302 303 303 302 302 301 302 302 303
307 307 307 307 308 307 307 307 307 306 305 305 304 304 306 306 307 308 306 306 305 305 305 305 305 306 306 306 306 305 303 303 304 306 306 306 308 308 309 311 311 310 308 306 306 306 309 310 311 310 310 310 310 306 305 305 305 305 305 305 304 304 305 305 305 306 306 306 307 307 307 306 304 303 303 302 300 300 300 301 300 301 301 301 301 301 301
308 308 307 308 308 308 309 309 307 305 305 305 305 305 306 307 306 306 305 306 306 306 305 305 305 305 306 305 306 306 306 304 300 302 306 305 305 306 306 306 308 308 308 308 308 309 310 310 311 310 309 309 307 305 305 304 304 304 304 304 304 304 303 303 304 304 304 305 305 305 304 304 305 305 304 303 302 301 300 299 299 299 300 300 299 299 300
307 308 308 308 307 307 307 306 305 305 305 307 308 306 307 306 307 306 305 305 304 304 303 303 303 304 305 307 306 305 307 308 306 303 305 305 305 305 305 307 309 309 308 306 305 305 309 308 308 309 309 308 305 305 304 304 305 305 304 303 303 304 304 304 304 304 303 303 303 303 303 303 303 303 303 303 303 302 302 300 299 299 298 298 298 298 298
307 307 306 306 305 305 305 305 304 305 306 306 306 306 306 305 303 303 304 304 304 304 302 302 303 304 304 304 304 305 307 307 307 308 307 306 306 307 306 306 307 309 308 306 306 305 307 308 308 308 307 305 304 305 305 304 303 304 304 304 303 302 303 305 304 304 305 305 303 303 303 303 303 303 303 303 303 302 302 302 301 300 300 299 299 298 297
308 307 306 306 306 306 306 306 306 307 306 306 307 307 306 304 303 304 303 304 303 302 301 301 301 301 302 303 304 304 304 305 305 306 306 307 307 306 306 306 307 307 306 305 305 304 304 304 304 306 305 304 303 303 303 304 303 303 304 303 303 302 302 303 303 303 303 304 304 303 303 303 303 304 303 303 302 302 302 303 303 301 301 300 299 298 298
306 307 308 308 306 306 306 306 307 307 307 305 304 303 303 302 302 301 301 304 301 301 301 300 299 300 301 301 303 303 304 303 304 304 305 305 304 304 305 306 304 304 304 303 303 304 303 303 305 306 306 303 303 303 304 304 303 302 302 304 303 302 303 302 303 303 303 303 303 302 302 302 302 302 302 302 302 302 302 302 301 301 301 301 301 300 300
Wind_Speed
15 16 7 8 9 11 12 24 21 24 25 25 23 17 15 13 10 7 6 3 2 9 9 8 7 6 8 6 13 13 15 11 7 6 10 13 11 8 7 5 5 8 9 9 11 12 12 14 14 13 13 14 12 11 13 14 16 16 14 15 15 16 16 16 15 16 15 15 15 15 15 14 15 15 14 13 13 13 12 13 13 15 14 14 13 14 13
15 13 18 11 6 9 14 16 23 21 24 25 25 19 18 15 9 8 9 6 6 5 9 12 12 11 11 9 7 10 10 9 5 6 5 12 12 11 10 7 7 4 6 7 8 8 9 11 12 13 11 11 13 14 12 14 14 13 13 15 15 16 16 16 14 14 15 14 14 14 14 14 15 15 14 13 13 13 13 13 12 12 12 12 13 14 14
14 17 15 13 11 10 12 16 25 23 21 22 23 21 20 17 13 15 11 13 8 5 7 12 12 8 12 10 11 12 8 11 12 10 8 12 17 14 9 9 7 7 6 6 7 8 8 9 11 11 10 11 12 17 14 16 14 13 13 13 15 16 15 14 13 14 14 14 14 14 14 14 13 14 15 13 13 13 13 13 12 12 12 13 14 13 15
10 11 17 17 8 11 12 11 10 13 20 22 21 19 18 15 13 14 12 9 10 7 5 14 7 8 9 10 5 7 7 9 5 2 2 2 12 17 16 12 10 9 10 9 10 11 12 12 9 9 8 9 11 13 13 14 15 16 14 13 16 15 14 13 14 14 14 14 14 15 14 14 14 14 14 14 13 13 13 13 12 11 13 14 13 13 12
10 9 10 12 10 7 9 11 12 14 16 14 16 19 18 18 16 13 13 8 8 6 7 11 13 12 9 7 5 1 7 7 2 3 4 5 3 11 13 12 12 12 12 13 12 13 13 11 10 11 9 10 10 10 10 12 11 14 15 12 13 14 15 14 15 14 13 14 15 14 15 14 13 13 14 14 14 13 14 13 11 13 13 14 14 14 13
9 9 12 8 6 11 10 7 16 11 8 13 22 19 19 19 15 10 9 8 11 9 10 9 7 5 5 6 4 4 5 4 4 1 1 3 3 2 4 9 14 10 5 12 11 11 8 11 13 10 10 11 9 9 9 9 12 11 11 12 11 14 14 14 14 14 14 14 15 15 14 13 12 13 13 14 14 12 11 11 13 14 14 14 14 14 14
7 7 6 8 13 11 6 9 15 8 7 10 9 6 20 21 21 19 19 15 13 9 3 2 5 5 7 6 3 4 8 7 6 5 4 4 6 5 3 4 4 7 10 7 6 5 7 9 8 11 10 10 8 9 8 9 10 11 10 11 10 12 14 13 13 14 14 14 14 13 13 13 13 13 13 12 12 11 12 13 13 13 14 13 13 13 14
5 6 8 12 13 6 6 9 9 5 6 9 8 8 10 16 17 8 3 9 8 8 8 8 6 5 5 7 6 4 5 3 2 2 3 6 7 6 4 1 8 8 9 6 6 6 4 2 2 5 10 11 12 10 10 9 9 11 10 11 11 10 13 14 14 13 13 14 13 13 13 13 14 14 13 13 13 12 11 11 10 10 10 11 12 12 12
6 4 8 13 3 11 14 14 15 7 9 9 8 5 5 3 7 11 8 8 8 9 8 5 5 3 4 3 1 2 5 4 7 5 6 6 8 7 1 10 10 9 6 5 5 3 1 2 4 3 4 9 9 9 10 11 9 10 11 12 12 11 12 13 14 14 14 14 14 13 13 14 15 14 13 13 12 10 11 11 11 11 11 12 11 12 13
6 7 8 11 13 8 9 8 8 5 4 6 4 6 5 3 4 2 2 5 5 8 8 10 9 8 6 4 5 7 6 3 5 13 14 19 18 14 13 11 12 10 9 6 5 3 3 3 4 4 5 3 6 8 9 10 10 10 12 13 12 11 11 12 13 13 13 13 13 13 13 14 14 13 12 11 12 11 12 12 13 13 12 11 11 12 14
6 8 9 8 11 9 7 11 4 8 4 9 4 3 6 3 8 11 12 7 7 1 4 3 9 8 7 6 4 7 11 9 12 12 12 13 12 12 13 12 11 8 5 3 5 5 6 7 5 4 5 5 5 6 9 11 11 11 12 12 12 12 10 10 12 12 12 12 13 14 14 13 12 12 12 11 10 9 11 11 12 10 10 10 11 11 14
8 8 8 8 5 2 7 6 15 11 8 5 2 5 7 12 12 17 4 9 9 12 8 5 6 5 10 6 9 7 11 7 12 12 11 10 10 9 10 11 7 4 2 1 3 4 3 4 4 3 5 5 6 5 7 10 12 12 12 10 9 9 9 10 11 11 11 11 12 12 13 12 11 11 10 11 12 12 11 10 10 11 10 10 12 12 12
8 9 8 8 2 2 2 14 11 4 9 8 11 8 5 11 12 13 12 17 14 10 7 4 4 4 10 10 7 11 10 12 10 10 9 10 9 9 10 8 7 5 4 5 4 4 5 5 6 4 3 5 6 6 5 7 10 10 8 7 8 8 8 9 11 12 11 11 12 12 11 11 11 11 11 11 11 11 12 11 10 10 11 11 11 10 11
9 7 7 6 3 5 6 5 11 18 3 9 3 5 8 8 8 14 11 14 14 11 10 8 9 8 11 12 10 10 10 9 9 8 9 9 9 7 9 5 7 5 4 6 5 5 5 7 7 6 4 4 4 4 4 6 6 6 6 7 7 7 8 9 10 11 11 10 11 11 10 10 10 10 9 10 10 11 11 9 10 10 9 8 8 9 9
10 8 10 4 6 9 18 9 13 15 9 1 5 7 13 4 14 11 12 12 12 11 9 11 10 10 12 13 14 12 11 11 10 9 8 8 8 7 6 7 10 8 5 5 5 5 6 10 5 3 5 5 4 4 4 4 4 4 5 6 7 7 7 9 9 9 10 11 10 10 9 10 10 9 9 9 8 8 9 9 9 9 9 8 8 8 6
10 11 11 5 4 7 15 13 6 4 7 4 7 5 7 10 11 10 6 11 10 11 10 10 10 10 10 12 13 12 11 11 11 9 7 8 9 9 9 8 9 10 7 4 5 5 6 7 8 5 3 3 3 3 3 2 2 2 4 4 6 7 7 8 8 8 9 10 9 8 8 8 9 8 8 7 7 7 8 8 7 7 7 7 7 7 7
7 5 3 6 7 7 11 11 8 8 6 7 8 7 6 10 9 11 8 9 8 8 9 7 8 8 11 10 11 11 12 11 11 11 9 8 9 8 8 7 7 6 6 6 4 5 6 7 6 7 2 2 2 5 6 4 0 4 4 4 5 6 6 7 7 7 7 7 8 7 7 7 8 8 8 7 7 6 6 7 6 6 6 6 6 5 5
7 9 9 8 8 4 11 8 9 7 6 8 10 10 8 7 9 9 10 11 12 10 8 8 7 9 10 10 10 11 11 11 10 10 10 9 8 8 8 9 9 8 7 3 6 4 2 3 3 4 7 4 5 6 2 3 3 2 3 3 4 4 5 5 6 6 8 9 7 7 6 6 7 7 7 8 7 5 5 5 5 6 5 5 5 6 6
5 4 1 6 6 5 7 8 6 4 5 8 9 8 8 8 8 9 8 9 10 12 11 8 7 7 8 8 9 9 10 10 10 9 9 7 7 7 7 8 7 7 9 4 5 7 8 9 10 10 6 4 5 3 3 2 2 2 2 3 4 4 4 5 5 6 7 8 8 7 6 6 6 6 6 8 7 7 6 7 7 6 6 6 6 6 5
8 9 8 11 13 13 11 7 6 7 7 7 8 7 8 9 9 9 10 9 9 9 10 12 8 7 7 7 7 8 8 9 9 7 7 9 8 7 6 5 6 7 7 3 3 3 4 5 5 4 5 7 7 8 3 5 2 2 2 2 3 4 5 5 6 5 5 10 9 8 7 5 6 8 8 8 8 9 8 8 8 8 8 7 7 6 5
8 9 12 12 12 13 11 10 8 7 6 6 6 7 9 10 11 11 11 10 9 9 9 11 11 8 8 8 8 7 7 7 8 8 7 6 6 6 5 5 5 6 6 3 1 3 3 3 3 3 5 6 6 5 6 5 3 2 3 5 4 5 5 4 5 4 4 4 6 6 8 9 9 7 5 4 9 8 8 5 6 3 5 7 5 3 7
9 9 7 6 9 8 8 9 10 7 10 9 7 8 8 10 11 12 12 12 11 10 9 10 10 11 7 7 6 7 7 7 7 7 8 7 6 5 4 3 3 3 4 4 4 4 3 2 2 3 4 2 3 5 5 4 4 5 6 6 7 6 5 5 4 4 4 4 5 7 9 8 9 9 13 14 8 9 7 11 16 15 11 6 5 5 8
9 8 9 7 8 9 9 11 9 11 11 13 14 13 11 10 10 12 13 14 14 13 11 10 10 11 9 9 8 8 7 7 7 7 8 7 6 5 3 2 2 2 1 3 2 2 3 3 4 4 3 3 3 5 5 6 5 5 4 5 6 6 7 5 5 5 6 6 5 7 8 8 9 10 8 11 16 15 13 11 14 16 16 17 19 15 9
15 15 14 12 10 9 10 12 10 8 9 11 12 13 13 13 13 13 14 13 14 15 14 13 12 12 10 8 9 9 9 8 7 7 6 6 4 3 3 2 2 3 3 3 3 3 3 2 2 3 3 3 3 3 3 4 5 5 5 6 6 5 5 5 5 5 5 5 6 6 6 8 8 9 9 10 8 10 11 11 14 15 16 15 14 14 13
13 12 13 13 12 12 10 10 11 10 8 8 9 12 14 14 15 14 14 13 12 14 14 14 13 11 11 9 8 8 8 9 7 7 5 2 2 3 2 3 4 4 3 3 4 4 4 3 4 4 4 4 3 4 3 4 5 5 5 5 5 4 5 7 7 7 6 6 6 5 6 7 8 7 8 8 7 5 4 9 8 11 13 13 13 13 11
14 15 15 15 14 13 11 11 13 13 12 10 10 12 13 13 12 12 12 13 13 13 14 13 12 11 10 9 8 8 8 9 9 8 7 6 5 5 5 6 5 5 6 5 5 5 5 5 4 4 6 6 5 4 6 4 6 6 6 6 6 5 5 6 5 5 6 6 6 6 6 6 5 5 5 6 7 8 7 4 4 5 6 4 6 10 7
15 14 14 16 16 16 13 13 11 9 9 9 10 10 11 11 11 11 11 12 14 14 13 11 10 9 8 9 9 9 9 9 8 8 7 7 7 4 6 7 6 6 7 6 5 5 7 6 6 5 6 7 6 5 6 7 7 7 8 7 7 10 14 9 6 6 6 6 6 5 6 6 6 5 5 5 5 4 3 5 5 5 5 1 3 2 4
18 17 15 16 15 13 13 13 14 14 13 13 14 14 14 12 13 14 14 14 14 13 11 8 8 9 9 7 8 10 9 10 9 8 6 6 5 6 8 8 9 7 7 7 6 6 6 7 9 8 6 5 5 7 9 8 7 7 7 7 8 8 7 9 7 7 6 6 6 5 5 6 5 4 3 3 3 4 3 3 4 3 5 6 4 5 4
19 18 19 20 20 17 15 14 14 14 14 13 12 11 12 13 14 13 14 13 14 12 9 8 8 9 9 9 6 7 9 9 7 6 3 4 6 9 9 10 9 8 7 7 6 5 5 7 7 7 6 4 5 6 7 8 6 6 6 7 8 8 8 7 6 7 6 5 4 4 4 4 3 4 4 3 2 3 3 4 4 3 0 4 3 4 2
20 18 18 18 19 20 19 18 16 16 16 14 13 13 13 14 13 11 12 13 11 10 8 7 7 8 8 8 7 4 7 8 6 6 5 4 4 5 7 9 11 10 10 8 7 8 8 9 8 6 4 8 7 5 7 6 6 8 10 10 9 7 6 5 7 6 5 5 4 3 3 4 3 3 4 3 3 2 2 4 3 2 3 3 3 3 3
17 18 21 20 20 19 20 18 16 16 17 15 15 14 14 14 13 12 13 11 8 5 4 3 3 4 4 4 3 3 3 7 5 7 7 10 10 8 6 7 8 8 8 9 8 8 8 8 8 8 7 6 7 6 7 8 7 8 7 7 7 8 11 12 7 5 5 4 3 0 1 3 3 2 3 2 3 2 0 1 1 2 2 2 3 2 4
18 18 20 18 18 19 18 15 16 17 16 15 15 16 15 15 14 13 13 9 7 7 4 3 1 0 1 4 6 7 6 6 9 4 11 11 11 9 9 10 12 11 10 9 7 7 8 8 8 7 8 8 8 7 8 7 4 6 8 8 7 6 7 7 3 4 3 4 4 5 2 3 4 3 2 4 2 1 1 1 1 2 2 2 3 7 4
12 12 15 18 19 18 17 18 16 17 16 16 15 14 14 13 11 12 12 9 8 7 4 3 2 4 7 9 10 10 9 9 10 7 8 14 13 11 11 10 11 12 12 11 11 10 8 7 7 7 7 8 9 10 7 7 7 8 7 7 7 6 6 9 9 4 7 7 7 7 6 6 5 4 6 4 4 4 4 4 4 6 6 4 3 4 5
12 17 16 16 16 16 18 18 16 14 14 14 14 15 14 11 9 10 11 10 7 5 4 5 6 8 9 11 13 12 10 10 11 11 8 11 12 12 12 12 13 14 13 13 13 12 10 9 6 7 9 11 11 10 10 7 6 6 6 6 7 7 7 7 7 8 8 8 7 7 6 6 6 6 6 5 5 5 5 5 5 5 5 4 4 3 6
19 10 6 12 14 15 16 15 14 14 13 14 15 14 9 8 9 10 5 4 6 6 9 10 10 9 11 12 13 13 13 13 11 10 11 9 12 12 13 15 16 16 16 14 13 11 11 12 11 10 11 12 13 12 10 8 8 6 6 7 7 7 7 8 9 9 7 7 6 7 6 7 7 7 7 7 8 8 7 8 8 7 6 6 6 6 1
23 21 20 13 3 12 14 15 13 12 13 12 10 8 7 8 10 6 6 4 10 11 10 12 12 14 14 13 12 12 12 12 12 13 13 12 11 12 16 17 17 16 15 14 13 13 14 14 18 16 10 11 12 14 13 8 9 8 6 6 7 8 7 7 8 8 7 7 7 8 8 9 10 9 9 10 10 10 10 9 9 9 8 8 8 8 7
26 25 21 19 19 20 14 11 5 4 4 3 2 1 1 2 3 7 8 9 9 12 11 13 15 16 15 13 13 12 12 11 12 13 12 13 14 16 16 16 17 16 14 13 12 12 12 13 16 16 11 9 11 13 15 18 4 5 6 8 8 8 8 9 9 9 9 9 9 9 10 10 10 10 11 10 9 9 8 8 8 8 8 8 8 9 9
23 22 20 17 17 21 21 20 17 14 11 11 10 9 10 9 9 8 13 12 11 13 14 16 16 15 14 14 15 14 14 14 15 15 15 14 13 15 16 15 13 12 12 10 10 11 9 11 15 10 9 10 11 13 16 21 18 10 9 11 10 10 10 11 11 10 10 10 10 10 11 10 10 10 10 9 9 9 9 10 10 10 10 10 10 10 9
23 21 21 21 21 21 20 21 18 16 16 22 20 13 14 14 15 12 13 14 12 14 17 16 17 17 16 15 14 14 14 14 14 14 13 12 12 16 15 14 13 12 11 10 12 11 12 12 11 11 11 11 13 14 16 18 18 12 11 10 11 10 10 10 10 9 9 9 10 10 10 10 10 10 9 9 9 9 9 11 10 10 10 11 11 11 11
19 19 19 19 19 21 21 21 20 18 17 23 19 18 17 13 15 16 17 16 14 16 16 16 18 16 16 16 15 14 13 12 11 13 12 12 13 14 13 15 15 13 14 16 13 12 17 20 14 11 10 12 12 12 13 17 16 13 12 12 12 12 12 11 11 10 10 10 11 11 10 10 9 9 9 9 9 10 10 10 11 11 11 11 11 10 11
18 18 18 19 20 20 20 21 20 17 20 22 17 16 16 15 16 19 18 17 15 15 15 15 17 17 16 14 15 15 14 14 14 14 12 13 14 12 13 13 11 11 14 13 13 13 16 17 15 13 12 13 13 13 12 16 14 13 13 13 13 12 12 12 12 12 11 11 10 10 9 9 9 9 10 10 11 11 11 11 11 10 10 10 11 10 10
16 17 18 18 17 18 19 19 17 18 20 20 17 17 19 17 16 16 14 15 15 15 15 16 19 15 13 12 12 13 15 14 14 15 15 14 12 10 13 11 9 10 17 15 14 14 12 13 14 15 13 12 13 21 19 13 12 12 12 12 12 12 12 12 12 11 11 11 11 10 10 9 10 10 10 11 11 11 11 10 10 11 10 11 11 11 10
15 16 15 14 14 16 16 17 18 18 18 17 16 15 15 15 15 14 14 14 14 14 16 15 15 15 13 11 11 12 12 12 13 12 13 13 13 12 11 8 8 11 18 12 12 11 11 10 12 13 19 16 15 22 19 13 11 11 11 11 11 12 12 12 11 10 10 11 11 11 11 11 11 11 11 10 9 10 10 10 10 10 10 10 10 10 11
11 11 11 12 12 12 12 12 14 14 14 14 13 14 15 14 13 14 14 14 14 13 13 13 14 13 12 12 12 10 9 8 8 7 8 10 11 11 10 8 7 12 18 10 10 11 11 11 12 17 23 23 23 21 13 12 12 11 11 11 10 10 10 10 10 11 11 11 12 12 12 12 11 11 10 10 9 9 9 10 10 10 10 10 10 11 11
11 10 11 11 11 11 10 10 11 11 10 9 11 12 12 13 12 12 12 13 14 14 13 13 12 11 11 11 10 10 9 10 9 9 10 10 11 10 9 11 12 10 13 16 10 11 11 11 15 23 18 19 20 20 12 11 12 12 11 11 10 10 10 10 10 10 11 11 11 11 12 12 12 11 11 10 10 10 10 9 10 10 10 10 11 11 11
11 10 10 11 11 10 9 10 9 8 9 9 10 10 10 10 11 10 11 12 12 12 12 12 12 12 10 9 9 9 9 9 10 10 9 8 8 7 8 11 10 12 18 17 10 10 11 20 19 17 19 19 19 13 11 12 11 11 11 11 10 10 10 10 10 10 10 9 9 10 10 10 10 11 11 10 11 10 11 11 10 10 10 10 9 9 9
9 10 10 8 7 7 9 9 9 9 9 9 9 9 8 8 7 7 8 10 11 11 11 10 11 10 10 10 8 7 8 9 8 8 8 8 9 9 10 14 15 18 13 10 10 11 10 11 14 17 17 20 19 11 11 12 11 10 10 10 10 10 11 10 10 10 10 9 9 9 10 9 8 8 9 10 11 11 10 10 10 10 10 10 10 10 10
7 9 9 8 7 7 7 6 7 8 7 7 7 7 7 8 8 8 8 7 8 9 9 8 8 9 9 9 9 9 7 6 8 8 7 8 8 8 7 7 9 14 15 14 16 16 21 18 14 15 16 16 11 10 10 10 10 10 10 10 10 11 10 10 9 10 10 10 10 9 9 8 8 8 8 8 8 9 10 10 11 11 10 10 11 11 12
8 7 8 7 8 8 8 8 9 8 7 6 6 6 7 7 7 7 7 8 8 8 9 9 9 8 8 9 9 7 7 5 5 6 6 6 7 8 8 9 13 13 9 9 10 10 15 17 18 17 16 14 9 9 9 10 10 10 10 10 9 8 7 8 8 8 8 9 9 9 9 9 9 8 8 8 7 7 7 8 9 10 10 10 11 11 11
9 8 7 8 8 9 8 8 8 7 7 7 7 6 5 5 6 7 6 7 7 9 9 9 8 7 5 5 6 6 5 6 6 5 5 6 8 7 7 7 8 13 13 9 10 10 13 17 14 14 12 9 9 9 8 8 9 8 8 9 9 8 8 7 6 7 6 6 8 7 7 7 7 7 8 8 8 7 7 6 6 8 11 9 9 10 10
6 5 6 7 7 8 9 8 7 6 6 7 6 5 5 7 8 8 8 7 6 7 7 7 7 8 8 8 7 7 6 6 7 7 6 6 5 7 9 7 9 10 10 10 9 9 8 8 9 10 10 9 8 9 9 9 8 9 8 8 9 8 7 7 7 7 8 7 6 8 8 7 6 5 5 6 6 5 5 4 6 9 8 7 7 7 7
8 8 8 7 6 7 7 7 6 6 6 7 8 8 8 8 8 8 9 14 9 6 5 6 8 8 7 8 8 7 6 7 7 8 8 7 7 7 7 9 8 9 8 7 8 8 9 9 10 11 11 9 8 8 9 9 7 8 8 8 7 8 8 8 8 8 8 7 7 7 7 7 7 7 7 8 8 8 9 10 10 9 9 10 9 8 7
Wind_Direction
253 245 281 306 319 320 221 211 212 199 197 204 214 199 205 179 199 192 165 156 144 142 144 145 180 165 150 168 154 130 94 102 116 110 118 114 113 112 124 82 83 117 136 149 157 162 171 180 187 191 190 191 190 191 192 193 202 198 191 189 190 190 190 194 193 190 191 194 199 198 195 193 197 199 201 202 201 200 198 197 203 208 210 209 197 197 199
252 258 250 232 305 281 311 219 213 204 197 200 208 211 206 198 179 224 167 173 208 148 146 191 157 175 157 127 120 87 84 92 102 124 146 136 127 126 133 139 132 102 116 133 150 157 172 183 184 190 191 186 186 191 191 192 198 202 191 187 190 193 193 193 190 187 190 194 197 198 197 195 195 197 199 200 201 202 203 201 197 200 206 208 207 197 198
261 250 255 251 239 278 278 278 208 204 200 200 199 212 210 203 198 200 211 164 192 139 161 143 150 140 109 113 117 128 133 118 131 161 182 154 142 135 139 142 151 144 148 145 151 168 184 192 189 192 190 188 185 195 194 197 194 199 195 186 189 194 194 188 187 187 188 193 193 197 200 198 194 196 199 200 201 202 204 203 200 194 198 203 212 207 199
271 250 251 226 225 244 263 296 285 236 208 200 192 204 207 203 192 186 214 160 198 141 142 129 137 91 91 87 102 140 67 87 80 92 120 57 151 154 150 151 151 157 164 171 175 181 187 194 198 194 192 188 189 199 190 196 196 199 206 194 190 191 189 184 188 188 189 190 193 197 197 198 196 196 197 201 203 202 202 202 201 196 196 202 207 212 202
252 251 293 248 204 258 267 259 260 217 215 214 199 196 205 210 196 189 202 159 189 209 190 154 156 158 109 91 114 132 78 32 51 44 1 340 7 128 154 152 144 165 177 180 183 185 188 194 197 202 197 194 196 199 193 192 195 200 204 200 188 189 188 186 187 188 187 190 194 195 197 198 196 194 196 201 203 202 203 202 199 203 201 199 204 209 212
266 255 252 254 212 227 236 221 231 221 262 226 202 197 196 203 207 192 196 167 159 186 187 223 131 147 111 131 156 44 37 82 62 327 106 284 280 313 154 134 164 175 188 165 176 180 176 186 194 198 200 203 199 195 197 187 195 203 199 207 191 188 188 189 186 186 188 190 195 197 195 195 195 197 198 202 202 203 202 199 203 207 204 204 204 207 212
258 250 268 233 223 228 233 228 223 223 252 292 306 243 192 194 195 196 185 194 159 130 120 152 52 66 93 142 145 150 179 192 175 196 228 232 275 288 358 351 336 80 102 112 118 129 170 190 180 182 192 197 191 194 196 195 194 197 201 203 200 186 189 188 184 186 188 190 194 195 193 192 194 198 200 201 199 200 201 203 204 206 206 207 207 207 211
319 289 230 232 219 233 208 213 238 239 283 289 305 282 286 188 185 122 138 108 107 112 154 167 164 158 182 122 84 36 35 26 316 296 258 227 223 205 224 74 79 53 57 52 56 56 51 75 235 182 184 194 201 199 194 200 195 196 198 201 205 189 188 188 188 185 186 189 190 191 191 191 195 199 199 197 197 198 204 208 209 209 211 215 212 212 212
249 262 261 239 222 212 205 237 199 165 228 222 233 256 260 48 122 146 176 160 176 164 162 172 137 141 56 49 134 142 287 289 270 296 340 294 231 232 174 92 80 71 55 45 28 3 328 294 276 250 206 189 197 193 191 199 198 195 197 202 205 198 189 189 188 185 185 188 189 190 190 192 197 198 196 196 197 193 203 209 210 209 211 213 215 214 214
290 271 279 226 204 204 193 265 232 179 285 293 253 242 231 247 267 232 220 205 198 217 205 192 195 169 203 216 223 223 232 265 71 45 29 31 25 53 74 81 76 67 51 26 38 357 317 274 257 291 298 258 186 187 187 190 196 198 200 206 204 200 194 189 187 184 183 186 188 190 192 195 196 197 195 197 199 192 200 204 210 213 211 213 215 216 218
287 255 264 242 211 211 220 216 215 139 220 234 306 227 220 124 235 225 225 230 201 257 357 243 176 190 184 174 69 14 33 37 46 43 39 37 31 41 53 54 56 46 38 13 304 284 270 269 257 235 244 278 273 195 184 184 192 201 205 206 201 201 194 184 185 185 185 189 191 191 195 195 191 190 191 192 194 191 202 205 213 211 209 212 214 215 221
256 271 250 246 201 164 340 228 183 167 163 196 144 208 163 21 17 6 261 205 61 58 57 27 68 123 159 105 23 347 8 19 40 33 35 35 35 31 38 40 26 21 15 315 349 324 334 353 319 232 215 240 255 240 189 183 192 203 207 203 199 196 190 180 182 185 189 190 191 194 194 192 192 191 185 190 195 195 200 205 207 212 214 214 215 218 219
254 265 266 251 167 134 132 30 21 206 187 199 186 192 55 326 7 18 28 53 53 50 34 61 163 20 13 19 10 8 355 11 17 17 25 24 13 15 23 35 35 27 28 49 348 326 308 287 279 293 264 223 238 250 211 193 200 203 199 190 190 189 189 185 183 187 189 189 191 195 197 195 191 191 191 193 194 194 201 203 205 207 215 217 220 220 220
236 235 251 210 250 78 52 172 37 7 267 190 145 10 284 301 36 26 40 55 43 42 41 30 26 1 359 2 12 10 358 359 5 359 359 5 8 353 0 3 49 24 39 20 341 316 279 245 229 243 244 244 242 247 227 208 199 183 178 178 178 182 185 187 186 190 194 189 189 196 196 192 192 191 189 193 194 193 200 200 202 203 205 216 220 223 221
251 239 215 220 237 21 355 82 45 29 43 139 291 346 326 44 40 30 43 43 31 32 28 19 11 5 4 4 6 2 356 358 358 357 351 5 3 3 344 32 31 17 24 348 345 336 351 0 345 229 227 221 229 242 235 208 186 179 173 174 172 178 181 187 192 192 190 188 185 195 196 191 190 189 186 191 193 193 193 199 202 199 202 206 214 224 229
232 215 212 208 51 342 36 40 81 27 40 19 26 3 337 41 29 5 29 39 24 24 20 5 6 358 5 6 360 348 349 352 343 339 354 21 9 7 5 17 23 351 18 11 354 23 353 354 345 328 250 195 212 200 202 172 197 183 182 171 168 174 179 184 190 192 187 186 182 192 192 183 183 183 186 189 191 192 190 197 196 198 202 201 211 219 227
241 263 278 359 331 344 28 44 44 43 14 19 37 21 14 25 20 358 20 15 22 19 26 4 0 356 10 359 351 348 345 343 344 359 7 6 357 348 354 3 14 343 358 13 350 7 12 359 356 338 13 138 166 82 32 1 176 195 190 174 146 165 171 180 183 192 183 181 178 183 181 173 173 176 184 184 193 188 186 190 197 208 197 197 204 217 231
305 279 242 268 291 14 42 21 12 354 356 6 24 29 19 15 14 3 10 357 353 354 26 9 17 7 1 352 348 351 341 338 336 346 349 356 346 334 350 19 15 350 329 12 4 1 45 20 352 20 8 13 95 62 44 31 359 45 97 101 122 144 164 173 180 186 187 186 167 171 169 170 172 175 186 181 187 179 185 187 200 206 204 203 204 210 212
317 289 117 237 291 320 37 9 340 302 331 354 28 19 9 351 351 356 8 358 345 356 333 38 17 356 348 354 356 342 335 330 340 335 333 338 349 337 335 356 347 335 322 347 30 24 16 16 11 9 5 39 52 64 32 315 234 125 157 145 146 161 164 169 177 189 183 184 178 176 176 180 174 175 183 183 184 178 182 206 205 197 205 205 212 218 216
261 274 300 318 314 318 329 331 323 318 323 360 21 8 352 341 338 351 355 345 353 354 355 355 351 352 350 1 358 335 326 329 324 331 326 333 337 334 339 344 334 324 308 316 6 3 15 357 12 10 23 25 21 359 292 221 161 149 158 143 158 173 166 168 164 183 171 180 175 175 179 188 187 182 182 190 189 178 189 202 202 191 195 197 197 209 215
262 265 266 272 289 291 293 292 284 292 300 12 354 3 342 346 342 340 340 347 341 352 356 345 338 345 6 346 347 331 325 320 326 329 323 315 316 317 325 346 341 347 329 326 18 23 34 12 8 14 22 9 4 15 356 17 69 159 128 158 173 171 163 159 146 146 151 155 157 160 96 80 61 35 1 71 76 68 41 22 51 40 90 73 59 71 78
254 248 253 234 249 261 251 237 249 296 3 342 331 345 341 342 337 335 336 337 342 341 348 349 339 326 345 339 328 328 317 315 321 327 322 308 294 288 297 303 317 327 343 7 45 53 39 3 53 60 54 28 358 24 16 29 67 82 81 70 71 67 72 62 87 91 72 74 47 81 101 96 85 63 41 39 60 103 83 63 69 69 79 78 58 70 87
252 252 258 275 292 293 291 298 324 2 343 343 336 331 331 331 336 335 332 332 334 334 336 344 335 331 333 339 332 322 332 332 327 313 306 302 297 286 291 265 256 278 344 45 48 65 51 21 42 42 49 73 47 31 40 30 31 51 61 71 73 66 57 58 59 76 71 50 60 100 106 100 91 91 82 47 38 55 86 93 91 88 82 78 66 57 71
279 290 303 310 312 299 315 310 315 339 334 315 317 317 322 328 333 331 327 327 326 326 325 331 338 327 328 335 332 328 322 321 312 300 304 301 294 272 227 209 178 162 178 163 142 115 98 83 104 97 102 85 78 78 55 61 55 54 55 58 78 86 95 101 67 66 73 90 90 75 100 110 106 107 104 99 76 33 39 85 100 97 97 95 95 91 84
275 285 286 288 285 284 283 296 308 315 316 313 313 314 315 318 318 321 321 321 319 321 322 323 329 329 323 329 321 313 306 299 289 281 279 283 294 244 188 186 183 151 133 127 117 127 125 113 88 94 87 67 78 102 114 98 87 75 82 89 91 80 72 62 62 61 79 83 84 88 92 107 118 121 111 119 118 126 69 22 42 93 110 113 116 114 111
288 284 280 278 283 281 281 281 278 275 276 280 283 282 288 293 301 309 311 316 313 310 309 318 318 318 330 319 308 299 295 291 294 279 264 260 224 195 166 154 144 142 140 134 133 127 128 128 143 111 78 73 55 68 94 97 110 116 108 107 102 104 98 97 85 83 77 67 67 58 56 67 71 85 114 125 140 137 133 133 104 50 34 63 116 120 107
271 274 278 275 271 272 264 259 266 273 279 285 282 284 294 302 311 307 301 298 296 293 294 304 312 312 304 297 295 298 295 295 279 259 259 251 234 190 158 155 154 133 125 121 122 126 120 105 79 77 100 118 116 78 67 68 72 81 88 89 102 105 110 105 104 96 84 79 71 69 78 93 94 90 80 65 65 73 98 129 125 138 152 164 264 259 121
270 264 255 250 249 257 267 267 266 262 266 272 274 277 280 288 289 289 291 291 286 280 274 284 306 305 298 301 307 299 287 266 262 260 252 233 213 178 157 147 134 133 127 123 124 133 143 143 140 139 131 113 112 126 126 136 144 136 125 119 110 104 91 91 83 75 72 66 71 72 68 62 68 82 90 97 98 106 120 103 85 73 93 130 159 204 173
258 254 250 245 248 252 257 263 269 272 266 262 266 276 279 279 273 273 275 275 275 274 276 286 290 293 290 292 300 299 293 280 260 247 232 220 180 163 156 154 134 122 115 123 120 113 99 90 89 81 69 61 92 78 74 66 66 82 98 109 107 96 95 91 85 86 77 72 61 35 33 66 90 90 78 71 61 85 85 86 83 93 91 92 112 120 116
250 247 245 246 245 242 244 243 246 252 251 252 258 261 266 270 273 270 268 266 261 260 268 283 285 286 293 285 277 298 309 279 202 161 112 86 124 115 96 96 107 107 103 88 76 87 75 65 54 54 98 125 113 101 85 91 89 73 62 55 51 48 51 74 100 95 95 88 81 19 67 87 37 66 90 92 115 90 64 101 146 152 108 132 172 159 156
246 243 239 238 236 236 235 237 239 239 241 245 250 256 254 255 260 267 267 260 251 244 236 276 304 314 312 300 335 8 342 323 282 142 120 103 93 83 76 94 96 98 96 91 79 70 64 61 56 50 24 46 75 90 122 120 97 88 85 80 74 51 35 25 70 102 117 132 135 83 72 105 108 121 115 101 77 42 90 78 111 97 122 154 214 223 95
242 239 231 227 230 233 234 234 233 233 236 236 241 244 245 245 248 257 259 241 229 222 194 208 231 304 2 39 39 36 8 9 325 211 131 107 95 89 81 77 82 82 78 74 66 61 61 51 48 37 30 34 44 50 49 48 76 102 106 101 93 81 43 353 79 88 99 68 79 95 74 63 58 340 84 74 53 27 296 324 84 199 225 292 52 74 115
222 226 230 227 222 222 226 224 224 227 228 230 233 238 240 237 243 252 252 231 212 200 166 114 22 8 51 46 46 38 33 26 10 308 107 98 91 84 77 71 68 69 65 56 46 39 42 57 55 37 42 44 34 22 34 80 71 67 67 80 89 84 71 46 18 19 62 60 48 25 27 28 34 26 25 8 21 18 9 1 357 354 5 13 28 80 88
222 213 215 216 216 218 218 222 223 226 226 228 230 232 231 231 243 251 244 226 200 164 118 99 84 68 61 57 56 46 32 39 32 348 9 74 87 85 82 75 67 61 56 52 49 41 29 16 36 52 44 44 35 29 15 37 63 80 93 91 80 71 63 60 54 61 62 58 55 47 33 40 45 30 27 9 5 3 3 356 5 0 345 359 1 80 127
42 31 240 209 201 212 216 216 212 212 216 220 222 222 220 231 235 229 205 148 138 108 106 98 85 70 65 61 58 51 44 48 42 9 355 29 66 72 74 67 59 53 47 43 41 36 25 22 20 46 48 42 34 28 18 30 45 41 54 72 72 68 62 68 55 44 44 54 45 50 49 47 50 35 24 20 29 14 17 15 11 3 350 354 359 4 178
43 45 45 44 166 200 201 204 202 208 217 218 214 210 213 228 224 187 147 155 128 117 107 102 92 80 67 63 60 59 54 46 42 29 12 6 32 55 61 60 56 52 45 41 32 32 29 27 27 33 39 37 36 29 14 23 66 53 55 58 77 74 66 63 69 65 43 45 55 46 41 43 48 41 29 30 28 24 18 17 12 3 2 4 1 357 355
43 47 45 48 48 49 52 51 37 187 143 78 45 10 106 98 151 123 126 114 101 96 91 88 80 74 70 64 63 59 54 53 53 48 32 20 27 41 48 54 53 51 46 41 23 26 34 33 30 37 43 45 46 36 21 8 46 69 56 66 69 63 67 63 54 57 56 45 46 49 40 37 35 37 34 30 28 26 18 14 13 7 3 4 1 359 5
41 42 44 40 43 50 42 41 33 34 54 67 58 66 64 62 77 98 109 90 86 84 81 74 75 78 75 69 61 56 54 50 50 51 48 38 30 44 44 44 43 45 48 42 27 25 22 36 34 30 44 47 47 43 33 25 25 44 62 55 54 57 56 61 54 51 52 51 52 52 47 42 38 35 32 28 25 23 23 18 17 12 10 10 7 6 5
32 36 40 41 44 48 47 48 38 40 49 56 40 28 56 49 61 61 73 80 78 82 81 80 77 70 65 65 61 55 52 52 52 53 52 49 45 52 51 43 42 38 36 35 37 34 29 30 37 39 41 49 50 49 43 42 44 48 52 60 57 56 59 64 60 60 55 56 55 56 52 45 42 39 34 33 29 24 24 24 22 19 18 12 8 3 353
40 38 37 41 43 45 45 45 41 37 46 58 45 38 40 43 57 54 56 59 59 67 73 76 74 71 66 64 62 58 51 49 52 56 56 55 53 54 55 45 34 30 32 33 35 33 33 36 38 35 38 46 48 51 48 49 50 49 48 51 55 55 52 50 52 51 50 47 50 52 54 51 45 43 42 37 34 31 27 25 25 24 20 17 13 6 1
40 41 40 40 43 46 45 44 40 31 43 54 45 44 43 37 52 55 51 55 51 57 63 68 75 76 73 72 72 69 61 56 54 53 51 52 51 48 52 47 24 28 31 34 32 31 33 37 36 39 37 45 47 48 53 54 54 54 53 51 52 53 54 52 52 52 50 47 47 50 50 49 46 46 44 41 37 35 32 29 29 25 22 19 16 11 6
48 45 46 45 47 50 51 49 45 39 42 46 37 38 42 36 43 54 51 53 53 52 57 61 67 73 79 76 75 73 69 62 59 54 49 52 49 46 52 45 23 30 33 32 31 30 28 34 38 39 38 42 45 47 49 52 55 59 58 57 55 54 55 56 55 54 54 54 49 46 44 43 42 41 42 41 41 38 35 33 30 26 23 20 20 15 11
56 51 48 49 49 51 55 56 54 50 48 45 38 36 38 37 39 42 45 50 51 51 55 54 51 54 59 64 70 71 70 68 64 65 67 62 58 53 53 45 28 37 39 33 33 32 31 30 41 43 47 48 48 46 45 44 44 49 57 60 60 60 58 55 54 52 53 55 54 50 45 44 42 39 37 36 34 32 36 38 34 30 26 22 17 15 15
63 62 62 58 56 55 58 58 59 58 56 52 47 41 38 36 37 43 43 44 47 48 52 54 54 52 52 57 59 59 59 64 72 73 74 74 69 67 66 62 47 47 48 44 35 40 38 36 39 47 49 51 52 51 47 45 44 43 42 48 55 61 63 64 60 56 52 52 52 51 49 47 45 42 39 35 30 29 30 35 37 35 32 27 22 20 16
67 69 68 69 67 63 57 57 61 63 66 70 68 62 53 44 35 36 48 50 54 52 47 47 47 47 49 47 53 61 64 58 54 57 65 67 70 67 57 61 58 54 49 49 46 44 39 36 36 43 42 44 50 52 51 48 46 45 42 40 42 47 53 58 61 63 63 59 57 57 54 52 49 46 44 39 35 31 25 28 33 32 30 28 24 20 13
66 68 73 82 80 72 66 66 66 70 72 70 68 67 67 66 60 46 44 51 52 53 53 53 51 44 39 47 54 53 56 61 64 58 52 50 56 72 74 66 58 56 51 50 44 42 40 42 41 44 46 47 48 48 48 49 49 47 44 40 37 39 45 49 52 54 61 66 65 62 61 60 57 55 48 45 41 37 30 28 30 31 30 29 28 25 18
46 61 62 58 62 80 93 93 90 81 77 70 65 62 60 63 65 68 68 65 61 59 56 56 55 53 48 42 34 39 54 58 54 54 60 53 52 51 57 70 71 63 56 50 43 37 27 35 40 43 48 51 49 49 51 50 47 46 45 45 44 40 41 43 46 47 46 49 56 67 70 67 65 62 61 57 50 43 36 31 29 25 24 24 22 22 24
45 44 48 45 62 74 80 80 78 75 72 75 80 77 70 62 56 53 55 64 72 71 68 65 62 59 55 52 50 45 41 46 61 53 48 63 56 52 46 58 76 78 68 55 48 37 32 28 37 53 51 51 53 49 49 52 55 50 46 45 44 44 42 39 42 44 44 42 41 41 44 50 56 62 63 63 63 60 55 46 36 31 26 24 23 21 21
43 33 45 48 52 54 50 54 67 75 77 75 78 83 87 85 78 66 54 46 52 63 67 66 64 62 58 54 51 44 33 23 50 76 61 59 64 59 46 47 51 56 62 61 53 44 30 30 33 36 45 47 47 54 54 49 51 57 55 49 45 38 41 51 48 48 52 50 48 49 49 46 43 43 47 55 64 68 65 64 60 50 43 38 32 26 26
20 28 42 44 42 42 46 52 49 43 61 66 66 62 61 68 74 75 71 64 57 54 44 34 32 33 42 64 68 52 41 38 30 53 67 48 50 61 54 45 52 59 56 59 62 53 38 32 33 42 46 43 38 39 49 55 51 50 59 60 49 40 21 19 58 48 49 64 63 60 62 64 59 55 53 49 48 51 58 67 81 84 72 56 48 42 35
23 13 26 27 40 48 51 51 50 46 46 53 59 66 68 62 56 47 41 55 80 68 63 59 50 38 29 27 39 53 43 53 65 50 52 61 52 51 52 58 61 56 53 50 52 57 56 49 41 38 43 45 49 46 37 38 46 43 42 58 59 45 38 29 36 46 37 31 48 47 38 38 45 45 53 62 61 58 53 40 58 54 42 60 69 60 49
30 28 33 28 36 51 46 50 50 47 53 53 49 48 55 56 51 45 37 26 27 38 56 72 73 59 42 26 20 30 54 55 42 47 49 47 47 51 49 48 52 57 58 58 58 56 53 50 47 44 43 44 44 51 54 42 43 50 46 46 53 57 46 35 33 40 43 38 44 57 56 43 35 42 43 37 31 26 36 42 38 37 32 28 28 39 51